Miscellaneous Local Product
Issued by NWS North Platte, NE

Home | Current Version | Previous Version | Text Only | Print | Product List | Glossary On
Versions: 1 2 3 4 5 6 7 8 9 10 11 12 13 14 15 16 17 18 19 20 21 22 23 24 25 26 27 28 29 30 31 32 33 34 35 36 37 38 39 40 41 42 43 44 45 46 47 48 49 50
561
AXUS43 KLBF 081310
MISLBF


WESTERN AND NORTH CENTRAL NEBRASKA HOURLY WEATHER ROUNDUP
NATIONAL WEATHER SERVICE NORTH PLATTE NE
700 AM CST MON FEB 08 2016

NOTE: "FAIR" INDICATES FEW OR NO CLOUDS BELOW 12,000 FEET WITH NO
SIGNIFICANT WEATHER AND/OR OBSTRUCTIONS TO VISIBILITY.

NOTE: STATIONS NOT REPORTING VARIABLES SUCH AS SKY/WEATHER OR
PRESSURE ARE PROVIDED BY THE NEBRASKA DEPARTMENT OF
ROADS...RAWS...AND APRS NETWORKS...AND ARE NOT UNDER
NATIONAL WEATHER SERVICE QUALITY CONTROL.

...OBSERVATIONS IN AND NEAR THE EASTERN PANHANDLE OF NEBRASKA...

CITY           SKY/WX    TMP DP  RH WIND       PRES   REMARKS
PINE RIDGE     CLOUDY    16  10  77 W6        30.34S WCI   7
CHADRON        CLOUDY    27  13  55 NW14      30.37R WCI  16
ALLIANCE       CLOUDY    23   9  55 NW18      30.31S WCI   9
SIDNEY         CLOUDY    21  10  62 NW16      30.32S WCI   7
BIG SPRINGS      N/A     25  15  64 NW7         N/A  WCI  17
$$

...OBSERVATIONS IN NORTH CENTRAL NEBRASKA...

CITY           SKY/WX    TMP DP  RH WIND       PRES   REMARKS
VALENTINE      CLEAR     24  15  68 NW18G25   30.26R WCI  10
THEDFORD       CLEAR     27  17  66 NW30G36   30.25R WCI  10
AINSWORTH      CLEAR     25  15  66 NW25G31   30.22S WCI   9
O`NEILL        MOCLDY    26  17  66 NW35G43   30.16S WCI   9
ORD            CLEAR     26  16  65 NW28G39   30.17R WCI  10
BROKEN BOW     CLEAR     26  15  63 NW24G36   30.19R WCI  11
BUTTE            N/A     25  18  74 W22G33      N/A  WCI  10
CHAMBERS         N/A     25  13  60 N7G26       N/A  WCI  17
EWING            N/A     25  17  72 N14G26      N/A  WCI  13
$$

...OBSERVATIONS IN SOUTHWEST NEBRASKA AND FAR NORTHEAST COLORADO...

CITY           SKY/WX    TMP DP  RH WIND       PRES   REMARKS
WRAY           FAIR      28   8  43 NW17      30.34S WCI  16
HOLYOKE        FAIR      30  12  47 NW22G30   30.33R WCI  17
IMPERIAL       CLEAR     24  11  57 NW16      30.32R WCI  11
OGALLALA       CLOUDY    25  11  56 NW18      30.32R WCI  11
NORTH PLATTE   CLEAR     23  12  62 NW20      30.27R WCI   8
MCCOOK         CLEAR     25  13  60 NW20      30.30R WCI  11
LEXINGTON      CLEAR     28  15  60 NW24G31   30.22S WCI  13
PAXTON           N/A     23  16  74 W7          N/A  WCI  15
STAPLETON        N/A     24  15  68 NW3G14      N/A
GOTHENBURG       N/A     26  15  61 NW12        N/A  WCI  16
CALLAWAY         N/A     25  16  67 NW23        N/A  WCI  10
$$

...OBSERVATIONS IN CENTRAL LINCOLN COUNTY AREA...

CITY           SKY/WX    TMP DP  RH WIND       PRES   REMARKS
N.P. AIRPORT   CLEAR     23  12  62 NW20      30.27R WCI   8
N.P. DOWNTOWN    N/A     24  14  65 W9G20       N/A  WCI  14
N.P. SOUTHEAST   N/A     21  12  68 MISG        N/A
N.P. HILLCREST   N/A     24  15  67 NW16        N/A  WCI  11
$$

...SOME OBSERVATIONS FROM AROUND THE REGION...

CITY           SKY/WX    TMP DP  RH WIND       PRES   REMARKS
DENVER         CLOUDY    18  10  71 S9        30.33R WCI   7
LARAMIE          N/A     30  16  56 CALM      30.35R
CHEYENNE       CLOUDY    34  19  54 NW18G29   30.31R WCI  23
SCOTTSBLUFF    CLOUDY    21  11  65 W13       30.37R WCI   9
RAPID CITY     CLOUDY    28   8  43 NW25G33   30.30S WCI  13
BISMARCK       CLEAR     26  17  68 NW16G24   30.27R WCI  14
PIERRE         CLEAR     26  17  68 NW24G32   30.23S WCI  11
WINNER         FAIR      26  16  65 NW22G32   30.23R WCI  12
SIOUX FALLS    LGT SNOW  20  14  77 N31G43    30.04R VSB 1   WCI   1
OMAHA          FLURRIES  27  19  72 NW25G35   30.02R WCI  12
GRAND ISLAND   PTCLDY    27  16  63 NW25G36   30.16R WCI  12
KANSAS CITY    MOCLDY    31  17  56 NW21G44   29.98R WCI  18
WICHITA        PTCLDY    32  17  54 NW22      30.19S WCI  19
OKLAHOMA CITY  CLEAR     36  16  44 NW16      30.28S WCI  26
LIBERAL        CLEAR     28  10  47 NW14      30.37R WCI  17
HAYS           CLEAR     28   9  43 NW23G35   30.25R WCI  14
GOODLAND       CLOUDY    21  10  62 NW18      30.32R WCI   6
$$




USA.gov is the U.S. government's official web portal to all federal, state and local government web resources and services.